Weather in Flemalle

Belgium     50°36′07″N   5°26′34″E
temp.,
°C
wind,
m/s
gust,
m/s
humid.,
%
clouds,
%
prec.,
mm/h
press.,
hPa
HPBL,
m
21 april, wed
wed2123:00+7ene118122 0.0 101710
02:00+6e118420 0.0 101710
05:00+5e118947 0.0 101611
08:00+8nne118699 0.0 101756
11:00+10n2379100 0.0 1018269
14:00+13nne456591 0.2 10181017
17:00+13nne555876 0.1 10171387
20:00+9nne6107996 0.2 1019595
22 april, thu
thu2223:00+8nne597148 0.0 1021709
02:00+2nne398431 0.0 1023263
05:00−1ne379220 0.0 1024162
08:00+1ne388024 0.0 1025313
11:00+7ne5759100 0.0 1026849
14:00+10nne45516 0.0 10261201
17:00+11nne465061 0.0 10251454
20:00+8ne35705 0.0 1026129
23 april, fri
fri2323:00+3ne22855 0.0 102826
02:00+1ne22933 0.0 102916
05:000ene22941 0.0 102913
08:00+3ene12855 0.0 1030106
11:00+9ne34605 0.0 1029803
14:00+12nne44495 0.0 10291153
17:00+13ne45485 0.0 10281265
20:00+9ne23725 0.0 102856
24 april, sat
sat2423:00+4ne22855 0.0 102912
02:00+2ene22900 0.0 102917
05:00+1ne22930 0.0 102925
08:00+4ne25833 0.0 1029156
11:00+9ne46596 0.0 1028778
14:00+12ne675211 0.0 10271054
17:00+13ne67575 0.0 10261203
20:00+9ne5107363 0.0 1026497
25 april, sun
sun2523:00+4ne3987100 0.0 1028206
02:00+3ne3688100 0.0 1027116
05:00+2ene229166 0.0 102631
08:00+4ene287690 0.0 1025237
11:00+12e454791 0.0 10241008
14:00+15e45385 0.0 10211561
17:00+16e4540100 0.0 10191629
20:00+11e3664100 0.0 1018126